Flag for Germany Weather past 2 weeks in Herne, North Rhine-Westphalia, Germany

Now
52 °F

Partly sunny.


Feels Like: 48 °F
Forecast: 42 / 62 °F
Wind: 10 mph from Northwest

Location: Dortmund / Wickede

Current Time: May 26, 2015 at 10:31:38 AM

Latest Report: May 26, 2015 at 9:50 AM


Visibility: N/A

Pressure: 30.09 "Hg

Humidity: 62%

Dew point: 39 °F

Location of HerneLocation

Historic Weather in Herne — Graph

°F

Herne temperature yesterday

Maximum temperature yesterday: 59 °F (at 4:50 PM)
Minimum temperature yesterday: 48 °F (at 5:50 AM)
Average temperature yesterday: 53 °F

Past Weeks' High & Low Weather Summary

 TemperatureHumidityPressure
High77 °F (May 11, 3:50 PM)94% (May 25, 11:50 AM)30.33 "Hg (May 25, 11:50 AM)
Low39 °F (May 14, 5:20 AM)29% (May 11, 2:50 PM)29.62 "Hg (May 18, 7:20 PM)
Average57 °F59%30.04 "Hg
* Reported May 11 9:20 AM — May 26 9:20 AM, Herne, Weather by CustomWeather, © 2015

Note: Actual official high and low records may vary slightly from our data, if they occured in-between our weather recording intervals... More about our weather records

Advertising

Herne weather history for previous 24 hours

 ConditionsComfort  
Time TempWeatherWind HumidityBarometerVisibility
9:20 AM
Tue, May 26
52 °FPartly sunny.9 mph67%30.09 "HgN/A
8:50 AM50 °FBroken clouds.8 mph71%30.09 "HgN/A
8:20 AM50 °FPartly sunny.7 mph76%30.09 "HgN/A
7:50 AM48 °FScattered clouds.7 mph76%30.07 "HgN/A
7:20 AM48 °FScattered clouds.9 mph76%30.07 "HgN/A
6:50 AM48 °FScattered clouds.8 mph76%30.07 "HgN/A
6:20 AM48 °FClear.6 mph76%30.07 "Hg10 mi
5:20 AM48 °FPassing clouds.7 mph76%30.04 "HgN/A
10:50 PM
Mon, May 25
52 °FClear.7 mph67%29.98 "Hg10 mi
10:20 PM54 °FPassing clouds.8 mph58%29.98 "HgN/A
9:50 PM54 °FSunny.9 mph63%29.98 "Hg10 mi
9:20 PM54 °FPassing clouds.8 mph63%29.98 "HgN/A
8:50 PM55 °FSunny.8 mph59%29.95 "Hg10 mi
8:20 PM55 °FScattered clouds.7 mph59%29.95 "HgN/A
7:50 PM55 °FSunny.8 mph59%29.95 "Hg10 mi
7:20 PM57 °FSunny.8 mph55%29.95 "Hg10 mi
6:50 PM57 °FPartly sunny.7 mph59%29.95 "HgN/A
6:20 PM57 °FPartly sunny.12 mph59%29.95 "HgN/A
5:50 PM59 °FSunny.2 mph63%29.95 "Hg10 mi
5:20 PM57 °FPartly sunny.3 mph63%29.95 "HgN/A
4:50 PM59 °FPartly sunny.7 mph59%29.95 "HgN/A
4:20 PM57 °FScattered clouds.2 mph63%29.95 "HgN/A
3:50 PM57 °FScattered clouds.6 mph72%29.95 "HgN/A
3:20 PM57 °FScattered clouds.2 mph72%29.95 "HgN/A
2:50 PM54 °FPartly sunny.3 mph77%29.98 "HgN/A
2:20 PM52 °FPartly sunny.3 mph82%29.98 "HgN/A
1:50 PM52 °FPartly sunny.2 mph82%29.98 "Hg6 mi
1:20 PM52 °FFog.5 mph88%29.98 "Hg3 mi
12:50 PM50 °FFog.7 mph94%29.98 "Hg2 mi
12:20 PM50 °FFog.7 mph94%29.98 "Hg1 mi
11:50 AM52 °FDrizzle. Fog.6 mph94%29.98 "Hg1 mi
11:20 AM52 °FDrizzle. Fog.7 mph88%29.98 "Hg1 mi
10:50 AM52 °FDrizzle. Fog.3 mph88%29.98 "Hg1 mi
10:20 AM52 °FFog.6 mph88%29.98 "Hg2 mi
Weather by CustomWeather, © 2015

See weather overviewHow to use our weather pages